CCA102 VHHH-ZBAA

Flight info

Callsign CCA102
Flight time 2h 54m
Altitude 35100
Route VHHH/07R K0859S1070 BEKO1D BEKOL A461 BUBDA/K0861S1100 W56 DUGEB ZBAA/19
Aircraft A320/H-SDE2E3FGHIJ3J4J5M1RWXY/LB1D1

Departure

Time 2026-05-04 08:02
Airport Hong Kong International Airport (VHHH)

Arrival

Time 2026-05-04 10:56
Airport Beijing Capital International Airport (ZBAA)
Time Latitude Longitude Altitude Speed Heading
2026-05-04 07:49 22.31089 113.92456 31 ft 0 kts 206°
2026-05-04 07:51 22.31088 113.92456 31 ft 0 kts 206°
2026-05-04 07:51 22.31079 113.92452 29 ft 5 kts 201°
2026-05-04 07:51 22.31033 113.92430 31 ft 8 kts 205°
2026-05-04 07:51 22.30977 113.92402 32 ft 10 kts 205°
2026-05-04 07:52 22.30912 113.92367 32 ft 11 kts 212°
2026-05-04 07:52 22.30905 113.92295 32 ft 11 kts 310°
2026-05-04 07:52 22.30979 113.92261 32 ft 12 kts 341°
2026-05-04 07:52 22.31056 113.92233 32 ft 0 kts 341°
2026-05-04 07:53 22.31058 113.92232 32 ft 0 kts 341°
2026-05-04 07:54 22.31262 113.92156 32 ft 14 kts 341°
2026-05-04 07:55 22.31355 113.92122 32 ft 15 kts 341°
2026-05-04 07:55 22.31454 113.92084 32 ft 16 kts 340°
2026-05-04 07:55 22.31561 113.92044 32 ft 17 kts 341°
2026-05-04 07:55 22.31599 113.91946 32 ft 17 kts 255°
2026-05-04 07:56 22.31561 113.91825 32 ft 18 kts 251°
2026-05-04 07:56 22.31520 113.91697 32 ft 19 kts 251°
2026-05-04 07:56 22.31477 113.91563 32 ft 19 kts 251°
2026-05-04 07:56 22.31433 113.91428 32 ft 18 kts 250°
2026-05-04 07:57 22.31390 113.91296 32 ft 19 kts 251°
2026-05-04 07:57 22.31346 113.91159 32 ft 20 kts 250°
2026-05-04 07:57 22.31299 113.91015 32 ft 21 kts 251°
2026-05-04 07:57 22.31252 113.90865 31 ft 21 kts 250°
2026-05-04 07:58 22.31203 113.90717 32 ft 20 kts 251°
2026-05-04 07:58 22.31158 113.90576 32 ft 20 kts 251°
2026-05-04 07:58 22.31112 113.90431 32 ft 20 kts 250°
2026-05-04 07:58 22.31066 113.90291 31 ft 20 kts 251°
2026-05-04 07:59 22.31020 113.90146 32 ft 21 kts 251°
2026-05-04 07:59 22.30974 113.90003 32 ft 18 kts 250°
2026-05-04 07:59 22.30932 113.89873 31 ft 19 kts 251°
2026-05-04 07:59 22.30972 113.89801 32 ft 0 kts 341°
2026-05-04 08:00 22.30973 113.89801 32 ft 1 kts 341°
2026-05-04 08:00 22.31001 113.89790 30 ft 8 kts 341°
2026-05-04 08:00 22.31058 113.89770 30 ft 9 kts 348°
2026-05-04 08:02 22.33130 113.96131 2762 ft 211 kts 72°
2026-05-04 08:02 22.33499 113.97685 3390 ft 216 kts 81°
2026-05-04 08:02 22.33762 113.99314 4000 ft 224 kts 81°
2026-05-04 08:03 22.34036 114.01007 4593 ft 232 kts 81°
2026-05-04 08:03 22.34322 114.02747 5227 ft 238 kts 82°
2026-05-04 08:03 22.34317 114.04518 5815 ft 242 kts 104°
2026-05-04 08:03 22.33681 114.06200 6431 ft 244 kts 128°
2026-05-04 08:04 22.32504 114.07508 6995 ft 246 kts 148°
2026-05-04 08:04 22.30948 114.08388 7366 ft 257 kts 167°
2026-05-04 08:04 22.29185 114.08731 7864 ft 260 kts 183°
2026-05-04 08:04 22.27342 114.08719 7986 ft 274 kts 185°
2026-05-04 08:05 22.25415 114.08691 8000 ft 279 kts 185°
2026-05-04 08:05 22.23471 114.08668 8000 ft 280 kts 185°
2026-05-04 08:05 22.21528 114.08651 8004 ft 280 kts 184°
2026-05-04 08:05 22.19605 114.08665 8004 ft 282 kts 178°
2026-05-04 08:06 22.17734 114.09332 7999 ft 290 kts 150°
2026-05-04 08:06 22.16332 114.10917 7997 ft 299 kts 120°
2026-05-04 08:06 22.15774 114.13077 8005 ft 304 kts 96°
2026-05-04 08:06 22.15632 114.15353 7986 ft 305 kts 95°
2026-05-04 08:08 22.16353 114.31207 7987 ft 308 kts 77°
2026-05-04 08:08 22.16837 114.33458 7982 ft 308 kts 77°
2026-05-04 08:10 22.27941 114.41784 10255 ft 306 kts 344°
2026-05-04 08:11 22.30116 114.41357 10393 ft 329 kts 344°
2026-05-04 08:11 22.34915 114.40407 10637 ft 372 kts 345°
2026-05-04 08:11 22.37499 114.39906 10754 ft 393 kts 345°
2026-05-04 08:12 22.40246 114.39385 11071 ft 405 kts 346°
2026-05-04 08:12 22.43037 114.38844 11646 ft 409 kts 342°
2026-05-04 08:12 22.45709 114.37820 12296 ft 406 kts 329°
2026-05-04 08:12 22.48043 114.36133 12852 ft 403 kts 315°
2026-05-04 08:13 22.49903 114.33887 13367 ft 400 kts 301°
2026-05-04 08:13 22.51202 114.31244 13953 ft 397 kts 288°
2026-05-04 08:13 22.51903 114.28412 14439 ft 396 kts 277°
2026-05-04 08:13 22.52375 114.25466 14955 ft 399 kts 277°
2026-05-04 08:14 22.52852 114.22495 15462 ft 401 kts 277°
2026-05-04 08:14 22.53361 114.19520 15959 ft 405 kts 281°
2026-05-04 08:14 22.54327 114.16640 16466 ft 411 kts 293°
2026-05-04 08:16 22.71686 114.04420 19277 ft 447 kts 330°
2026-05-04 08:16 22.74506 114.02976 19621 ft 449 kts 330°
2026-05-04 08:16 22.77336 114.01522 19962 ft 451 kts 330°
2026-05-04 08:17 22.80168 114.00064 20326 ft 452 kts 329°
2026-05-04 08:17 22.82969 113.98620 20732 ft 452 kts 329°
2026-05-04 08:17 22.85811 113.97150 21099 ft 453 kts 329°
2026-05-04 08:17 22.88658 113.95674 21430 ft 454 kts 329°
2026-05-04 08:19 23.08825 113.85191 23641 ft 467 kts 330°
2026-05-04 08:19 23.11881 113.83919 23901 ft 472 kts 334°
2026-05-04 08:20 23.14975 113.82704 24189 ft 473 kts 334°
2026-05-04 08:20 23.18068 113.81494 24557 ft 472 kts 334°
2026-05-04 08:20 23.21152 113.80288 24921 ft 472 kts 334°
2026-05-04 08:20 23.24239 113.79078 25282 ft 472 kts 334°
2026-05-04 08:21 23.27328 113.77864 25630 ft 472 kts 334°
2026-05-04 08:21 23.30415 113.76649 25976 ft 472 kts 334°
2026-05-04 08:21 23.33494 113.75437 26326 ft 472 kts 333°
2026-05-04 08:21 23.36540 113.74236 26684 ft 472 kts 333°
2026-05-04 08:22 23.39622 113.73018 27063 ft 471 kts 333°
2026-05-04 08:22 23.42703 113.71801 27409 ft 471 kts 333°
2026-05-04 08:24 23.64266 113.63272 30032 ft 472 kts 333°
2026-05-04 08:24 23.67351 113.62045 30355 ft 472 kts 333°
2026-05-04 08:24 23.70433 113.60824 30687 ft 470 kts 333°
2026-05-04 08:24 23.73507 113.59613 31061 ft 469 kts 333°
2026-05-04 08:25 23.76567 113.58411 31495 ft 466 kts 332°
2026-05-04 08:25 23.79562 113.57230 31873 ft 464 kts 331°
2026-05-04 08:25 23.82589 113.56031 32266 ft 462 kts 331°
2026-05-04 08:25 23.85597 113.54830 32680 ft 460 kts 331°
2026-05-04 08:26 23.88595 113.53629 33054 ft 458 kts 331°
2026-05-04 08:27 24.09302 113.45384 35158 ft 452 kts 330°
2026-05-04 08:28 24.15199 113.43015 35173 ft 455 kts 330°
2026-05-04 08:28 24.18269 113.42026 35172 ft 466 kts 339°
2026-05-04 08:28 24.21535 113.41601 35174 ft 480 kts 349°
2026-05-04 08:29 24.28281 113.41802 35170 ft 486 kts 353°
2026-05-04 08:31 24.55260 113.42583 35186 ft 486 kts 352°
2026-05-04 08:33 24.82347 113.43356 35200 ft 488 kts 352°
2026-05-04 08:35 25.09412 113.44134 35183 ft 487 kts 351°
2026-05-04 08:35 25.16185 113.44325 35185 ft 487 kts 351°
2026-05-04 08:37 25.39788 113.44996 35200 ft 487 kts 351°
2026-05-04 08:38 25.46551 113.45199 35195 ft 485 kts 351°
2026-05-04 08:38 25.53264 113.45392 35194 ft 485 kts 351°
2026-05-04 08:40 25.80228 113.46165 35204 ft 486 kts 351°
2026-05-04 08:41 25.86973 113.46371 35172 ft 484 kts 350°
2026-05-04 08:41 25.92536 113.46333 35175 ft 479 kts 347°
2026-05-04 08:42 25.99177 113.45997 35170 ft 477 kts 346°
2026-05-04 08:42 26.05806 113.45625 35178 ft 478 kts 346°
2026-05-04 08:43 26.13546 113.45301 35192 ft 479 kts 347°
2026-05-04 08:43 26.20204 113.45075 35191 ft 479 kts 347°
2026-05-04 08:44 26.25741 113.44881 35175 ft 479 kts 346°
2026-05-04 08:46 26.52349 113.43846 35168 ft 480 kts 346°
2026-05-04 08:46 26.59022 113.43595 35166 ft 480 kts 346°
2026-05-04 08:47 26.65684 113.43340 35179 ft 479 kts 346°
2026-05-04 08:47 26.72322 113.43084 35154 ft 477 kts 346°
2026-05-04 08:48 26.78893 113.42826 35176 ft 470 kts 346°
2026-05-04 08:48 26.85442 113.42583 35143 ft 473 kts 346°
2026-05-04 08:49 26.92045 113.42322 35188 ft 475 kts 347°
2026-05-04 08:50 27.15085 113.41434 35151 ft 474 kts 347°
2026-05-04 08:51 27.21683 113.41172 35181 ft 475 kts 347°
2026-05-04 08:51 27.28286 113.40919 35167 ft 475 kts 347°
2026-05-04 08:52 27.34858 113.40699 35167 ft 477 kts 348°
2026-05-04 08:52 27.41534 113.40784 35166 ft 481 kts 351°
2026-05-04 08:54 27.68139 113.41502 35164 ft 481 kts 352°
2026-05-04 08:55 27.74853 113.42060 35171 ft 486 kts 354°
2026-05-04 08:55 27.81542 113.42798 35147 ft 481 kts 354°
2026-05-04 09:01 28.51238 113.48259 35177 ft 476 kts 352°
2026-05-04 09:01 28.57853 113.48729 35169 ft 476 kts 352°
2026-05-04 09:02 28.64447 113.49203 35149 ft 474 kts 352°
2026-05-04 09:02 28.71040 113.49675 35150 ft 475 kts 352°
2026-05-04 09:03 28.77597 113.50146 35148 ft 476 kts 352°
2026-05-04 09:03 28.84208 113.50622 35194 ft 476 kts 352°
2026-05-04 09:04 28.90825 113.51094 35186 ft 476 kts 352°
2026-05-04 09:04 28.97441 113.51573 35179 ft 476 kts 352°
2026-05-04 09:05 29.04009 113.52042 35180 ft 477 kts 352°
2026-05-04 09:05 29.10629 113.52518 35174 ft 477 kts 352°
2026-05-04 09:06 29.17249 113.53001 35168 ft 477 kts 352°
2026-05-04 09:08 29.43719 113.55122 35158 ft 478 kts 353°
2026-05-04 09:08 29.50347 113.55723 35157 ft 478 kts 353°
2026-05-04 09:09 29.56933 113.56295 35158 ft 478 kts 353°
2026-05-04 09:09 29.63566 113.56861 35162 ft 478 kts 353°
2026-05-04 09:10 29.70190 113.57431 35147 ft 477 kts 353°
2026-05-04 09:10 29.76818 113.58005 35149 ft 478 kts 353°
2026-05-04 09:11 29.83405 113.58576 35152 ft 479 kts 354°
2026-05-04 09:11 29.90052 113.59158 35184 ft 479 kts 354°
2026-05-04 09:12 29.96703 113.60657 35175 ft 502 kts 11°
2026-05-04 09:14 30.22468 113.73505 35158 ft 504 kts 14°
2026-05-04 09:14 30.28900 113.76726 35151 ft 504 kts 14°
2026-05-04 09:15 30.35303 113.79932 35197 ft 505 kts 14°
2026-05-04 09:15 30.41728 113.83159 35154 ft 502 kts 15°
2026-05-04 09:17 30.70563 113.97608 35150 ft 502 kts 14°
2026-05-04 09:18 30.76945 114.00977 35140 ft 505 kts 18°
2026-05-04 09:18 30.83224 114.04554 35165 ft 505 kts 18°
2026-05-04 09:19 30.89535 114.08058 35093 ft 501 kts 17°
2026-05-04 09:19 30.95871 114.11460 35124 ft 502 kts 16°
2026-05-04 09:20 31.02177 114.14842 35142 ft 503 kts 16°
2026-05-04 09:20 31.08519 114.18283 35170 ft 503 kts 17°
2026-05-04 09:21 31.14862 114.21746 35159 ft 503 kts 17°
2026-05-04 09:21 31.21203 114.25202 35153 ft 502 kts 17°
2026-05-04 09:22 31.27535 114.28651 35152 ft 502 kts 17°
2026-05-04 09:22 31.33847 114.31908 35165 ft 493 kts 10°
2026-05-04 09:23 31.37125 114.32899 35160 ft 482 kts
2026-05-04 09:23 31.40417 114.33315 35158 ft 471 kts 353°
2026-05-04 09:23 31.46954 114.33489 35156 ft 470 kts 353°
2026-05-04 09:25 31.73073 114.34269 35140 ft 470 kts 353°
2026-05-04 09:26 31.79622 114.34465 35164 ft 471 kts 353°
2026-05-04 09:26 31.86139 114.34660 35155 ft 472 kts 353°
2026-05-04 09:27 31.92691 114.34860 35143 ft 470 kts 353°
2026-05-04 09:27 31.99225 114.35062 35135 ft 470 kts 353°
2026-05-04 09:28 32.05760 114.35254 35155 ft 470 kts 353°
2026-05-04 09:28 32.12297 114.35452 35141 ft 470 kts 353°
2026-05-04 09:29 32.18788 114.35645 35129 ft 469 kts 353°
2026-05-04 09:29 32.25317 114.35837 35120 ft 469 kts 354°
2026-05-04 09:30 32.31857 114.36253 35131 ft 472 kts 357°
2026-05-04 09:30 32.38403 114.36942 35122 ft 472 kts 358°
2026-05-04 09:31 32.44938 114.37638 35115 ft 472 kts 358°
2026-05-04 09:31 32.51433 114.38243 35110 ft 471 kts 357°
2026-05-04 09:32 32.57971 114.38810 35115 ft 471 kts 357°
2026-05-04 09:34 32.84051 114.41233 35116 ft 470 kts 359°
2026-05-04 09:34 32.90575 114.41835 35107 ft 470 kts 359°
2026-05-04 09:35 32.97097 114.42439 35105 ft 470 kts 359°
2026-05-04 09:35 33.03572 114.43046 35121 ft 469 kts 359°
2026-05-04 09:37 33.29470 114.45486 35117 ft 466 kts 360°
2026-05-04 09:38 33.35931 114.46096 35107 ft 465 kts 360°
2026-05-04 09:38 33.42370 114.46700 35105 ft 464 kts 360°
2026-05-04 09:39 33.48809 114.47310 35127 ft 464 kts 360°
2026-05-04 09:39 33.55194 114.47910 35113 ft 463 kts 360°
2026-05-04 09:40 33.61609 114.48516 35106 ft 462 kts
2026-05-04 09:40 33.68019 114.49121 35102 ft 462 kts 360°
2026-05-04 09:42 33.93590 114.51514 35100 ft 461 kts
2026-05-04 09:43 33.99989 114.52116 35094 ft 461 kts
2026-05-04 09:43 34.06343 114.52719 35096 ft 461 kts
2026-05-04 09:44 34.12738 114.53326 35098 ft 461 kts
2026-05-04 09:46 34.38226 114.55747 35087 ft 460 kts
2026-05-04 09:46 34.44609 114.56366 35096 ft 460 kts
2026-05-04 09:47 34.50990 114.56970 35092 ft 460 kts
2026-05-04 09:49 34.76450 114.59380 35084 ft 459 kts
2026-05-04 09:51 34.98642 114.61504 35082 ft 457 kts
2026-05-04 09:51 35.04970 114.62100 35074 ft 456 kts
2026-05-04 09:52 35.11300 114.62707 35099 ft 456 kts
2026-05-04 09:52 35.17615 114.63318 35082 ft 454 kts
2026-05-04 09:53 35.23874 114.63926 35068 ft 454 kts
2026-05-04 09:53 35.30171 114.64531 35064 ft 454 kts
2026-05-04 09:54 35.36463 114.65136 35073 ft 453 kts
2026-05-04 09:54 35.42748 114.65747 35062 ft 453 kts
2026-05-04 09:55 35.48983 114.66353 35054 ft 453 kts
2026-05-04 09:55 35.55254 114.66965 35055 ft 452 kts
2026-05-04 09:56 35.61527 114.67573 35057 ft 452 kts
2026-05-04 09:56 35.67787 114.68183 35049 ft 451 kts
2026-05-04 09:57 35.74039 114.68794 35045 ft 451 kts
2026-05-04 09:57 35.80247 114.69404 35058 ft 450 kts
2026-05-04 09:58 35.86486 114.70014 35048 ft 449 kts
2026-05-04 09:58 35.92710 114.70624 35040 ft 448 kts
2026-05-04 10:00 36.17493 114.73049 35035 ft 447 kts
2026-05-04 10:02 36.39060 114.76064 35024 ft 454 kts 17°
2026-05-04 10:04 36.59355 114.87710 34984 ft 464 kts 21°
2026-05-04 10:04 36.65223 114.91110 34997 ft 466 kts 21°
2026-05-04 10:05 36.71101 114.94533 35003 ft 467 kts 21°
2026-05-04 10:05 36.76989 114.97970 35005 ft 467 kts 21°
2026-05-04 10:06 36.82832 115.01389 35023 ft 468 kts 21°
2026-05-04 10:06 36.88722 115.04841 35031 ft 467 kts 21°
2026-05-04 10:08 37.09232 115.16875 35031 ft 465 kts 21°
2026-05-04 10:08 37.15081 115.20324 35026 ft 464 kts 21°
2026-05-04 10:09 37.20924 115.23781 35025 ft 464 kts 21°
2026-05-04 10:09 37.26764 115.27244 35033 ft 463 kts 21°
2026-05-04 10:10 37.32546 115.30669 35025 ft 463 kts 21°
2026-05-04 10:10 37.38372 115.34118 35033 ft 462 kts 21°
2026-05-04 10:11 37.44188 115.37569 35027 ft 462 kts 21°
2026-05-04 10:11 37.49986 115.41033 35021 ft 461 kts 21°
2026-05-04 10:12 37.55746 115.44472 35016 ft 461 kts 21°
2026-05-04 10:12 37.61538 115.47927 35026 ft 460 kts 21°
2026-05-04 10:13 37.67318 115.51392 35018 ft 459 kts 21°
2026-05-04 10:13 37.73087 115.54852 35016 ft 459 kts 21°
2026-05-04 10:14 37.78923 115.57853 35008 ft 452 kts 10°
2026-05-04 10:16 38.00487 115.57347 35011 ft 444 kts 354°
2026-05-04 10:16 38.03575 115.57122 35020 ft 444 kts 354°
2026-05-04 10:16 38.09750 115.56688 35015 ft 445 kts 355°
2026-05-04 10:17 38.15932 115.56356 35013 ft 444 kts 355°
2026-05-04 10:19 38.36609 115.61657 32232 ft 434 kts 23°
2026-05-04 10:19 38.39301 115.63369 30714 ft 433 kts 23°
2026-05-04 10:19 38.41966 115.65066 28998 ft 434 kts 24°
2026-05-04 10:19 38.44671 115.66783 27011 ft 436 kts 24°
2026-05-04 10:20 38.47399 115.68509 25052 ft 438 kts 24°
2026-05-04 10:20 38.50127 115.70232 23169 ft 438 kts 24°
2026-05-04 10:20 38.52851 115.71949 21302 ft 434 kts 24°
2026-05-04 10:20 38.55520 115.73635 20593 ft 419 kts 24°
2026-05-04 10:21 38.58072 115.75254 20143 ft 416 kts 24°
2026-05-04 10:21 38.60668 115.76892 19329 ft 416 kts 24°
2026-05-04 10:21 38.63262 115.78525 18521 ft 415 kts 24°
2026-05-04 10:21 38.65815 115.80257 17648 ft 416 kts 29°
2026-05-04 10:22 38.70383 115.84912 16846 ft 428 kts 37°
2026-05-04 10:22 38.72665 115.87367 16586 ft 429 kts 37°
2026-05-04 10:22 38.74922 115.89779 16333 ft 428 kts 37°
2026-05-04 10:23 38.77203 115.92220 16083 ft 427 kts 37°
2026-05-04 10:23 38.79473 115.94660 15839 ft 425 kts 37°
2026-05-04 10:25 38.94995 116.11455 14144 ft 412 kts 37°
2026-05-04 10:25 38.97185 116.13825 13898 ft 411 kts 37°
2026-05-04 10:25 38.99450 116.16037 13655 ft 407 kts 29°
2026-05-04 10:25 39.01946 116.17691 13398 ft 402 kts 19°
2026-05-04 10:26 39.04599 116.18740 13134 ft 397 kts
2026-05-04 10:26 39.07326 116.19163 12866 ft 393 kts 359°
2026-05-04 10:26 39.10042 116.18965 12648 ft 390 kts 351°
2026-05-04 10:26 39.12691 116.18533 12674 ft 390 kts 351°
2026-05-04 10:27 39.15393 116.18112 12677 ft 391 kts 351°
2026-05-04 10:27 39.18095 116.17703 12677 ft 391 kts 351°
2026-05-04 10:27 39.20796 116.17302 12676 ft 390 kts 351°
2026-05-04 10:27 39.23495 116.16902 12674 ft 390 kts 351°
2026-05-04 10:28 39.26188 116.16504 12673 ft 390 kts 351°
2026-05-04 10:28 39.28888 116.16103 12674 ft 391 kts 351°
2026-05-04 10:28 39.31591 116.15698 12674 ft 391 kts 351°
2026-05-04 10:28 39.34257 116.15298 12674 ft 391 kts 351°
2026-05-04 10:29 39.36959 116.14887 12674 ft 391 kts 351°
2026-05-04 10:29 39.39662 116.14475 12671 ft 391 kts 351°
2026-05-04 10:29 39.42364 116.14062 12670 ft 391 kts 351°
2026-05-04 10:29 39.45065 116.13649 12670 ft 391 kts 351°
2026-05-04 10:30 39.47766 116.13236 12667 ft 391 kts 351°
2026-05-04 10:30 39.50467 116.12822 12667 ft 391 kts 351°
2026-05-04 10:30 39.53171 116.12408 12669 ft 391 kts 351°
2026-05-04 10:30 39.55871 116.11997 12671 ft 392 kts 351°
2026-05-04 10:31 39.58579 116.11586 12663 ft 392 kts 351°
2026-05-04 10:31 39.61252 116.11178 12662 ft 392 kts 351°
2026-05-04 10:32 39.77451 116.08678 12665 ft 392 kts 351°
2026-05-04 10:33 39.80141 116.08268 12655 ft 388 kts 351°
2026-05-04 10:33 39.82808 116.07886 12653 ft 388 kts 354°
2026-05-04 10:33 39.85520 116.07834 12652 ft 385 kts 358°
2026-05-04 10:33 39.88116 116.07845 12652 ft 362 kts 358°
2026-05-04 10:34 39.90555 116.07862 12647 ft 340 kts 358°
2026-05-04 10:34 39.92846 116.07876 12648 ft 320 kts 357°
2026-05-04 10:34 39.95011 116.07888 12645 ft 302 kts 356°
2026-05-04 10:34 39.97049 116.07897 12646 ft 285 kts 356°
2026-05-04 10:35 39.98976 116.07903 12640 ft 270 kts 357°
2026-05-04 10:35 40.00809 116.07903 12646 ft 266 kts 357°
2026-05-04 10:35 40.02655 116.07900 12643 ft 265 kts 357°
2026-05-04 10:35 40.04501 116.07895 12646 ft 265 kts 357°
2026-05-04 10:36 40.06344 116.07849 12646 ft 264 kts 351°
2026-05-04 10:36 40.08100 116.07216 12644 ft 262 kts 333°
2026-05-04 10:36 40.09598 116.05894 12645 ft 261 kts 316°
2026-05-04 10:36 40.10747 116.04063 12645 ft 261 kts 307°
2026-05-04 10:37 40.11820 116.02147 12643 ft 261 kts 307°
2026-05-04 10:37 40.12885 116.00262 12645 ft 261 kts 307°
2026-05-04 10:37 40.14014 115.98409 12643 ft 261 kts 315°
2026-05-04 10:37 40.15399 115.96867 12644 ft 261 kts 321°
2026-05-04 10:39 40.24341 115.88930 12640 ft 261 kts 333°
2026-05-04 10:39 40.25972 115.87942 12640 ft 262 kts 333°
2026-05-04 10:39 40.27626 115.86940 12633 ft 262 kts 333°
2026-05-04 10:40 40.29311 115.86036 12634 ft 263 kts 342°
2026-05-04 10:40 40.31111 115.85551 12635 ft 265 kts 346°
2026-05-04 10:40 40.32917 115.85109 12635 ft 265 kts 346°
2026-05-04 10:40 40.34756 115.84924 12632 ft 269 kts
2026-05-04 10:41 40.36518 115.85815 12636 ft 279 kts 32°
2026-05-04 10:41 40.37803 115.87753 12445 ft 289 kts 62°
2026-05-04 10:41 40.38235 115.90300 12207 ft 295 kts 84°
2026-05-04 10:41 40.38342 115.92996 11954 ft 296 kts 84°
2026-05-04 10:42 40.38449 115.95694 11701 ft 296 kts 84°
2026-05-04 10:42 40.38558 115.98371 11455 ft 292 kts 84°
2026-05-04 10:42 40.38670 116.01017 11205 ft 290 kts 84°
2026-05-04 10:42 40.38785 116.03659 10975 ft 290 kts 84°
2026-05-04 10:43 40.38901 116.06307 10730 ft 291 kts 84°
2026-05-04 10:44 40.39706 116.24804 8580 ft 286 kts 85°
2026-05-04 10:45 40.39818 116.27401 8257 ft 285 kts 86°
2026-05-04 10:45 40.39929 116.29987 7930 ft 283 kts 87°
2026-05-04 10:45 40.40041 116.32557 7621 ft 282 kts 86°
2026-05-04 10:45 40.40153 116.35086 7292 ft 281 kts 88°
2026-05-04 10:46 40.40264 116.37631 7041 ft 278 kts 88°
2026-05-04 10:46 40.40374 116.40159 6726 ft 278 kts 89°
2026-05-04 10:46 40.40483 116.42672 6551 ft 271 kts 88°
2026-05-04 10:46 40.40388 116.45069 6424 ft 256 kts 106°
2026-05-04 10:47 40.39792 116.47223 6101 ft 250 kts 121°
2026-05-04 10:47 40.39013 116.49269 5745 ft 252 kts 121°
2026-05-04 10:47 40.38237 116.51327 5412 ft 252 kts 121°
2026-05-04 10:47 40.37470 116.53376 5065 ft 246 kts 121°
2026-05-04 10:49 40.29325 116.58066 3767 ft 165 kts 177°
2026-05-04 10:49 40.28216 116.58242 3567 ft 156 kts 177°
2026-05-04 10:50 40.27168 116.58409 3396 ft 147 kts 177°
2026-05-04 10:51 40.20435 116.59472 2390 ft 137 kts 177°
2026-05-04 10:52 40.19492 116.59621 2205 ft 136 kts 178°
2026-05-04 10:52 40.18559 116.59769 2012 ft 135 kts 177°
2026-05-04 10:52 40.17623 116.59916 1816 ft 136 kts 177°
2026-05-04 10:54 40.10898 116.60977 474 ft 147 kts 175°
2026-05-04 10:54 40.09894 116.61135 282 ft 145 kts 174°
2026-05-04 10:56 40.07538 116.61082 124 ft 18 kts 262°
2026-05-04 10:56 40.07518 116.60913 124 ft 16 kts 245°
2026-05-04 10:56 40.07453 116.60896 121 ft 10 kts 172°
2026-05-04 10:57 40.07380 116.60907 121 ft 12 kts 173°
2026-05-04 10:57 40.07303 116.60900 121 ft 7 kts 229°
2026-05-04 10:57 40.07300 116.60841 123 ft 8 kts 263°
2026-05-04 10:57 40.07295 116.60787 122 ft 0 kts 263°